Regional Weather Roundup
Issued by NWS

Home | Current Version | Previous Version | Graphics & Text | Print | Product List | Glossary On
Versions: 1 2 3 4 5 6 7 8 9 10 11 12 13 14 15 16 17 18 19 20 21 22 23 24 25 26 27 28 29 30 31 32 33 34 35 36 37 38 39 40 41 42 43 44 45 46 47 48 49 50
366
ASUS43 KFSD 201902
RWRSD

WEATHER ROUNDUP FOR SOUTH DAKOTA
NATIONAL WEATHER SERVICE SIOUX FALLS SD
100 PM CST SAT JAN 20 2018

NOTE: "FAIR" INDICATES FEW OR NO CLOUDS BELOW 12,000 FEET WITH NO
SIGNIFICANT WEATHER AND/OR OBSTRUCTIONS TO VISIBILITY.


SDZ001>005-009-010-012>017-202000-
NORTHWEST AND NORTH CENTRAL SOUTH DAKOTA

CITY           SKY/WX    TMP DP  RH WIND       PRES   REMARKS
BUFFALO          N/A     38  26  62 NW12      29.83S
FAITH            N/A     38  32  79 NW8       29.89F
MOBRIDGE       PTSUNNY   45  32  60 W6        29.86F
$$

SDZ012>016-024>037-041>051-057-063-072>074-202000-
SOUTHWEST AND SOUTH CENTRAL SOUTH DAKOTA

CITY           SKY/WX    TMP DP  RH WIND       PRES   REMARKS
RAPID CTY ARPT CLOUDY    39  27  62 N9        29.90F
PIERRE         LGT RAIN  39  37  92 NW9       29.92S
CUSTER         FLURRIES  30  21  69 NE6       29.83F WCI  24
ELLSWORTH AFB  CLOUDY    38  30  73 N7        29.89F
PHILIP         LGT RAIN  38  37  97 W6        29.92F
PINE RIDGE     CLOUDY    35  34  96 N9        29.89F WCI  28
SPEARFISH        N/A     34  28  80 NW5       29.90F WCI  30
WINNER         FAIR      40  35  83 NW9       29.91F
$$

SDZ004>011-016>023-039-040-202000-
NORTHEAST SOUTH DAKOTA

CITY           SKY/WX    TMP DP  RH WIND       PRES   REMARKS
ABERDEEN       CLOUDY    45  34  65 W7        29.88F
WATERTOWN      CLOUDY    40  30  67 W5        29.87F
SISSETON         N/A     48  29  47 W8        29.85S
$$

SDZ017-020-022-023-036>040-048>070-202000-
SOUTHEAST SOUTH DAKOTA

CITY           SKY/WX    TMP DP  RH WIND       PRES   REMARKS
SIOUX FALLS    CLOUDY    44  34  67 CALM      29.87F
HURON          CLOUDY    44  33  65 NW3       29.89F
CHAMBERLAIN    CLOUDY    39  36  87 CALM      29.90F
MITCHELL       PTSUNNY   41  34  76 N6        29.89F
YANKTON        CLOUDY    40  31  70 N8        29.87F
$$

ABBREVIATIONS USED IN REMARKS
   TC - TEMPERATURE IN CELSIUS
  WCI - WIND CHILL INDEX
   HX - HEAT INDEX
  VSB - VISIBILITY





USA.gov is the U.S. government's official web portal to all federal, state and local government web resources and services.